Previsão horária em Aba-el-Baul

Hoje, 12 Abril, Segunda-feira

Tempo Temperatura Precipitação Vento Pressão Humidade
00:00 +28°C° 0 mm 5 m/s 753 mmHg 49%
01:00 +27°C° 0 mm 5 m/s 752 mmHg 56%
02:00 +26°C° 0 mm 5 m/s 752 mmHg 63%
03:00 +26°C° 0 mm 5 m/s 752 mmHg 70%
04:00 +26°C° 0 mm 5 m/s 752 mmHg 68%
05:00 +26°C° 0 mm 5 m/s 752 mmHg 67%
06:00 +26°C° 0 mm 5 m/s 753 mmHg 65%
07:00 +29°C° 0 mm 5 m/s 753 mmHg 49%
08:00 +33°C° 0 mm 5 m/s 754 mmHg 33%
09:00 +36°C° 0 mm 4 m/s 754 mmHg 16%
10:00 +38°C° 0 mm 4 m/s 754 mmHg 15%
11:00 +40°C° 0 mm 4 m/s 753 mmHg 13%
12:00 +42°C° 0 mm 3 m/s 753 mmHg 12%
13:00 +42°C° 0 mm 4 m/s 752 mmHg 12%
14:00 +42°C° 0 mm 4 m/s 752 mmHg 12%
15:00 +42°C° 0 mm 4 m/s 751 mmHg 12%
16:00 +40°C° 0 mm 4 m/s 751 mmHg 17%
17:00 +36°C° 0 mm 5 m/s 752 mmHg 21%
18:00 +34°C° 0 mm 5 m/s 752 mmHg 25%
19:00 +32°C° 0 mm 5 m/s 752 mmHg 31%
20:00 +30°C° 0 mm 5 m/s 753 mmHg 37%
21:00 +29°C° 0 mm 5 m/s 753 mmHg 42%
22:00 +29°C° 0 mm 5 m/s 753 mmHg 44%
23:00 +28°C° 0 mm 4 m/s 753 mmHg 47%

Amanhã, 13 Abril, Terça-feira

Tempo Temperatura Precipitação Vento Pressão Humidade
00:00 +28°C° 0 mm 4 m/s 752 mmHg 49%
01:00 +28°C° 0 mm 3 m/s 752 mmHg 51%
02:00 +27°C° 0 mm 3 m/s 752 mmHg 52%
03:00 +27°C° 0 mm 3 m/s 752 mmHg 54%
04:00 +27°C° 0 mm 2 m/s 753 mmHg 53%
05:00 +27°C° 0 mm 2 m/s 753 mmHg 52%
06:00 +27°C° 0 mm 2 m/s 753 mmHg 51%
07:00 +30°C° 0 mm 2 m/s 754 mmHg 41%
08:00 +32°C° 0 mm 2 m/s 754 mmHg 30%
09:00 +36°C° 0 mm 2 m/s 755 mmHg 20%
10:00 +37°C° 0 mm 2 m/s 754 mmHg 18%
11:00 +39°C° 0 mm 2 m/s 754 mmHg 16%
12:00 +40°C° 0 mm 2 m/s 753 mmHg 14%
13:00 +40°C° 0 mm 3 m/s 752 mmHg 16%
14:00 +41°C° 0 mm 5 m/s 752 mmHg 18%
15:00 +41°C° 0 mm 6 m/s 751 mmHg 20%
16:00 +38°C° 0 mm 6 m/s 751 mmHg 27%
17:00 +34°C° 0 mm 6 m/s 751 mmHg 34%
18:00 +30°C° 0 mm 6 m/s 751 mmHg 41%
19:00 +30°C° 0 mm 5 m/s 752 mmHg 44%
20:00 +29°C° 0 mm 4 m/s 752 mmHg 47%
21:00 +29°C° 0 mm 3 m/s 752 mmHg 49%
22:00 +28°C° 0 mm 3 m/s 752 mmHg 49%
23:00 +28°C° 0 mm 3 m/s 752 mmHg 50%

Depois de amanhã, 14 Abril, Quarta-feira

Tempo Temperatura Precipitação Vento Pressão Humidade
00:00 +28°C° 0 mm 3 m/s 752 mmHg 50%
01:00 +28°C° 0 mm 3 m/s 752 mmHg 49%
02:00 +28°C° 0 mm 3 m/s 752 mmHg 48%
03:00 +28°C° 0 mm 4 m/s 752 mmHg 47%
04:00 +28°C° 0 mm 4 m/s 752 mmHg 47%
05:00 +28°C° 0 mm 4 m/s 752 mmHg 47%
06:00 +28°C° 0 mm 5 m/s 753 mmHg 46%
07:00 +30°C° 0 mm 4 m/s 753 mmHg 40%
08:00 +33°C° 0 mm 4 m/s 754 mmHg 33%
09:00 +35°C° 0 mm 4 m/s 754 mmHg 27%
10:00 +36°C° 0 mm 4 m/s 754 mmHg 25%
11:00 +37°C° 0 mm 4 m/s 753 mmHg 23%
12:00 +38°C° 0 mm 3 m/s 753 mmHg 21%
13:00 +38°C° 0 mm 3 m/s 752 mmHg 20%
14:00 +38°C° 0 mm 3 m/s 751 mmHg 19%
15:00 +39°C° 0 mm 2 m/s 751 mmHg 19%
16:00 +36°C° 0 mm 3 m/s 751 mmHg 25%
17:00 +34°C° 0 mm 3 m/s 751 mmHg 32%
18:00 +32°C° 0 mm 4 m/s 751 mmHg 39%
19:00 +30°C° 0 mm 5 m/s 752 mmHg 42%
20:00 +29°C° 0 mm 6 m/s 752 mmHg 46%
21:00 +28°C° 0 mm 7 m/s 753 mmHg 49%
22:00 +29°C° 0 mm 7 m/s 752 mmHg 45%
23:00 +29°C° 0 mm 7 m/s 752 mmHg 41%

15 Abril, Quinta-feira

Tempo Temperatura Precipitação Vento Pressão Humidade
00:00 +30°C° 0 mm 7 m/s 752 mmHg 37%
01:00 +29°C° 0 mm 6 m/s 752 mmHg 41%
02:00 +28°C° 0 mm 4 m/s 752 mmHg 45%
03:00 +27°C° 0 mm 3 m/s 753 mmHg 49%
04:00 +26°C° 0 mm 4 m/s 753 mmHg 51%
05:00 +26°C° 0 mm 4 m/s 753 mmHg 53%
06:00 +26°C° 0 mm 5 m/s 754 mmHg 55%
07:00 +28°C° 0 mm 5 m/s 754 mmHg 44%
08:00 +32°C° 0 mm 6 m/s 755 mmHg 33%
09:00 +34°C° 0 mm 6 m/s 755 mmHg 23%
10:00 +35°C° 0 mm 6 m/s 755 mmHg 21%
11:00 +36°C° 0 mm 7 m/s 754 mmHg 19%
12:00 +38°C° 0 mm 7 m/s 754 mmHg 17%
13:00 +38°C° 0 mm 7 m/s 753 mmHg 17%
14:00 +37°C° 0 mm 8 m/s 753 mmHg 16%
15:00 +37°C° 0 mm 8 m/s 753 mmHg 16%
16:00 +34°C° 0 mm 8 m/s 753 mmHg 19%
17:00 +32°C° 0 mm 7 m/s 753 mmHg 21%
18:00 +29°C° 0 mm 7 m/s 753 mmHg 23%
19:00 +28°C° 0 mm 6 m/s 754 mmHg 28%
20:00 +27°C° 0 mm 6 m/s 754 mmHg 32%
21:00 +26°C° 0 mm 5 m/s 754 mmHg 36%
22:00 +25°C° 0 mm 5 m/s 754 mmHg 37%
23:00 +25°C° 0 mm 5 m/s 754 mmHg 37%

16 Abril, Sexta-feira

Tempo Temperatura Precipitação Vento Pressão Humidade
00:00 +25°C° 0 mm 5 m/s 753 mmHg 37%
01:00 +25°C° 0 mm 5 m/s 753 mmHg 37%
02:00 +25°C° 0 mm 5 m/s 753 mmHg 38%
03:00 +23°C° 0 mm 5 m/s 753 mmHg 38%
04:00 +23°C° 0 mm 5 m/s 753 mmHg 37%
05:00 +23°C° 0 mm 5 m/s 754 mmHg 36%
06:00 +25°C° 0 mm 5 m/s 754 mmHg 34%
07:00 +27°C° 0 mm 6 m/s 755 mmHg 28%
08:00 +30°C° 0 mm 7 m/s 755 mmHg 21%
09:00 +33°C° 0 mm 8 m/s 755 mmHg 14%
10:00 +34°C° 0 mm 8 m/s 755 mmHg 13%
11:00 +37°C° 0 mm 8 m/s 755 mmHg 11%
12:00 +38°C° 0 mm 8 m/s 754 mmHg 10%
13:00 +37°C° 0 mm 8 m/s 754 mmHg 10%
14:00 +37°C° 0 mm 8 m/s 754 mmHg 10%
15:00 +37°C° 0 mm 8 m/s 754 mmHg 10%
16:00 +34°C° 0 mm 7 m/s 754 mmHg 12%
17:00 +32°C° 0 mm 6 m/s 754 mmHg 14%
18:00 +29°C° 0 mm 5 m/s 754 mmHg 17%
19:00 +28°C° 0 mm 4 m/s 754 mmHg 20%
20:00 +26°C° 0 mm 4 m/s 754 mmHg 22%
21:00 +25°C° 0 mm 3 m/s 754 mmHg 25%
22:00 +25°C° 0 mm 3 m/s 754 mmHg 26%
23:00 +25°C° 0 mm 3 m/s 754 mmHg 28%

17 Abril, Sábado

Tempo Temperatura Precipitação Vento Pressão Humidade
00:00 +25°C° 0 mm 3 m/s 753 mmHg 29%
01:00 +25°C° 0 mm 4 m/s 753 mmHg 28%
02:00 +25°C° 0 mm 4 m/s 753 mmHg 27%
03:00 +25°C° 0 mm 4 m/s 753 mmHg 25%
04:00 +25°C° 0 mm 4 m/s 753 mmHg 26%
05:00 +25°C° 0 mm 4 m/s 754 mmHg 26%
06:00 +26°C° 0 mm 4 m/s 754 mmHg 26%
07:00 +28°C° 0 mm 5 m/s 755 mmHg 23%
08:00 +32°C° 0 mm 7 m/s 755 mmHg 20%
09:00 +34°C° 0 mm 8 m/s 755 mmHg 17%
10:00 +35°C° 0 mm 8 m/s 755 mmHg 15%
11:00 +37°C° 0 mm 9 m/s 755 mmHg 12%
12:00 +38°C° 0 mm 10 m/s 754 mmHg 10%
13:00 +38°C° 0 mm 9 m/s 754 mmHg 10%
14:00 +38°C° 0 mm 9 m/s 754 mmHg 9%
15:00 +38°C° 0 mm 9 m/s 754 mmHg 9%
16:00 +35°C° 0 mm 8 m/s 754 mmHg 11%
17:00 +33°C° 0 mm 6 m/s 754 mmHg 13%
18:00 +32°C° 0 mm 5 m/s 754 mmHg 16%
19:00 +29°C° 0 mm 4 m/s 754 mmHg 18%
20:00 +28°C° 0 mm 3 m/s 755 mmHg 21%
21:00 +27°C° 0 mm 3 m/s 755 mmHg 23%
22:00 +27°C° 0 mm 3 m/s 755 mmHg 25%
23:00 +27°C° 0 mm 3 m/s 755 mmHg 27%
Mostrar mais